STARLINK-34522

导读

STARLINK-34522是美国SpaceX星链(Starlink)星座的卫星,于2025年6月23日发射,星链星座旨在为全球提供低延迟、高速率的宽带互联网服务,该卫星延续星链低轨部署模式,进一步扩充星座卫星规模,助力提升星座覆盖密度与服务能力,满足全球不同区域网络接入需求。

基本信息
目录编号:
64492
目录名称:
STARLINK-34522
国际标识:
2025-133W
轨道中心:
EARTH
卫星名称:
STARLINK-34522
卫星全名:
STARLINK-34522
卫星状态:
在轨 (已飞行355 天)
发射日期:
2025-06-23 UTC
国别 :
美国 (US)
星等 :
--
轨道信息
数据来源 国际轨道数据
星历时间: 2026-06-13T15:59:23+0800
13小时前
查看轨道信息
半长轴: 6840.817km
偏心率: 0.0001173
轨道倾角: 53.159°
近地点辐角 100.324°
升交点赤经 29.574°
平近点角 259.790°
近地点: 461.877km
远地点: 463.483km
周期: 93.847分钟
每日圈数: 15.344079
详细信息
使用方式:
暂无
2D轨道图
3D轨道图
轨道高度分析图
轨道倾角分析图
轨道综合分析图
查看轨道综合分析图